sat.trackr.live / text

‹ back to catalog

STARLINK-5979

NORAD 56345 · 2023-058AE

PAYLOAD ACTIVE UNKNOWN

§ Identity

Operator
Country
US
Launch date
2023-04-27
Launch site
AFWTR
Launch vehicle
Mass (kg)
RCS (m²)

Purposes: comms

External: N2YO · Heavens-Above · Gunter

§ Orbital elements

Epoch: 2026-05-25T00:01:30.811584Z

Period
95.64 min
Inclination
97.4479°
Eccentricity
0.0001671
Mean motion
15.05656880 rev/d
Perigee alt
548.3 km
Apogee alt
550.6 km
Semi-major
6,927.6 km
B*
-3.9603e-5
RAAN
144.9176°
Arg perigee
77.7262°
Mean anomaly
282.4152°
Rev number
16,960

§ Raw data

STARLINK-59791 56345U 23058AE  26145.00105106 -.00000630  00000+0 -39603-4 0  99972 56345  97.4479 144.9176 0001671  77.7262 282.4152 15.05656880169603

JSON: /api/v1/satellites/56345 · /tle

For live sub-satellite position, see the globe view (requires WebGL).

§ Visibility from observer

Set your observer location to see the next 7 days of passes ≥ 10°. The values pass through the URL so the page stays shareable.

No JS? Fill the form by hand. The geolocation button needs JavaScript.